Weather History for New Philadelphia, OH

Change the Weather History Date:

Saturday, March 30, 2013

  Actual Average Record
Temperature  
Mean Temperature 40 °F 45 °F  
Max Temperature 56 °F 57 °F 80 °F (1986)
Min Temperature 23 °F 34 °F 16 °F (1966)
Degree Days  
Heating Degree Days 25 20  
Month to date heating degree days 865 759  
Since 1 July heating degree days 4995 4966  
Cooling Degree Days 0 0  
Month to date cooling degree days 0 0  
Year to date cooling degree days 0 0  
Moisture  
Dew Point 22 °F    
Average Humidity 56    
Maximum Humidity 88    
Minimum Humidity 24    
Precipitation  
Precipitation 0.00 in 0.10 in 0.74 in (2004)
Month to date precipitation 1.58 2.93  
Year to date precipitation 4.74 7.89  
Sea Level Pressure  
Sea Level Pressure 30.18 in    
Wind  
Wind Speed 2 mph (SSE)    
Max Wind Speed 10 mph    
Max Gust Speed 15 mph    
Visibility 10 miles    
Events      
T = Trace of Precipitation, MM = Missing Value Source: NWS Daily Summary

Daily Weather History Graph

Daily Weather History Graph

Search for Another Location

Airport:

Trip Planner

Search our weather history database for the weather conditions in past years. The results will help you decide how hot, cold, wet, or windy it might be!

Date:

Astronomy

Mar. 30, 2013 Rise Set
Actual Time 7:12 AM EDT 7:48 PM EDT
Civil Twilight 6:44 AM EDT 8:15 PM EDT
Nautical Twilight 6:12 AM EDT 8:48 PM EDT
Astronomical Twilight 5:39 AM EDT 9:21 PM EDT
Moon 11:54 PM EDT (3/30) 9:05 AM EDT (3/30)
Length of Visible Light 13h 31m
Length of Day
12h 36m
Waning Gibbous, 86% of the Moon is Illuminated
Mar 30
Waning Gibbous
Apr 3
Last Quarter
Apr 10
New
Apr 18
First Quarter
Apr 25
Full

Hourly Weather History & Observations

Time (EDT) Temp. Windchill Dew Point Humidity Pressure Visibility Wind Dir Wind Speed Gust Speed Precip Events Conditions
12:53 AM 30.0 °F - 23.0 °F 75% 30.25 in 10.0 mi Calm Calm - N/A   Clear
1:53 AM 28.0 °F - 21.9 °F 78% 30.25 in 10.0 mi Calm Calm - N/A   Clear
2:53 AM 27.0 °F - 21.9 °F 81% 30.25 in 10.0 mi Calm Calm - N/A   Clear
3:53 AM 26.1 °F - 21.0 °F 81% 30.25 in 10.0 mi Calm Calm - N/A   Clear
4:53 AM 26.1 °F - 21.0 °F 81% 30.25 in 10.0 mi Calm Calm - N/A   Clear
5:53 AM 25.0 °F - 19.9 °F 81% 30.25 in 10.0 mi Calm Calm - N/A   Clear
6:53 AM 24.1 °F - 19.9 °F 84% 30.26 in 10.0 mi Calm Calm - N/A   Clear
7:53 AM 25.0 °F - 21.0 °F 85% 30.27 in 10.0 mi Calm Calm - N/A   Clear
8:53 AM 30.0 °F - 25.0 °F 82% 30.29 in 10.0 mi Calm Calm - N/A   Clear
9:53 AM 37.0 °F 34.5 °F 27.0 °F 67% 30.28 in 10.0 mi ESE 3.5 mph - N/A   Clear
10:53 AM 45.0 °F 40.6 °F 26.1 °F 48% 30.25 in 10.0 mi SE 8.1 mph - N/A   Clear
11:53 AM 48.9 °F - 21.9 °F 35% 30.22 in 10.0 mi SE 8.1 mph - N/A   Clear
12:53 PM 50.0 °F - 21.0 °F 32% 30.21 in 10.0 mi Variable 3.5 mph - N/A   Clear
1:53 PM 52.0 °F - 21.0 °F 30% 30.19 in 10.0 mi SW 9.2 mph - N/A   Clear
2:53 PM 54.0 °F - 19.9 °F 26% 30.16 in 10.0 mi ESE 4.6 mph - N/A   Clear
3:53 PM 54.0 °F - 19.0 °F 25% 30.14 in 10.0 mi Variable 3.5 mph - N/A   Clear
4:53 PM 55.0 °F - 19.9 °F 25% 30.11 in 10.0 mi South 3.5 mph - N/A   Clear
5:53 PM 55.0 °F - 21.0 °F 27% 30.09 in 10.0 mi West 5.8 mph - N/A   Clear
6:53 PM 54.0 °F - 19.9 °F 26% 30.09 in 10.0 mi Calm Calm - N/A   Clear
7:53 PM 51.1 °F - 19.0 °F 28% 30.08 in 10.0 mi Calm Calm - N/A   Clear
8:53 PM 46.0 °F - 26.1 °F 46% 30.07 in 10.0 mi Calm Calm - N/A   Clear
9:53 PM 43.0 °F - 26.1 °F 51% 30.06 in 10.0 mi Calm Calm - N/A   Clear
10:53 PM 39.0 °F 36.8 °F 27.0 °F 62% 30.04 in 10.0 mi ESE 3.5 mph - N/A   Clear
11:53 PM 37.9 °F 35.5 °F 27.0 °F 65% 30.01 in 10.0 mi ESE 3.5 mph - N/A   Clear